Location: Maccacari
(45.1333°N, 11.1333°E)
Time: 08:06:34
(UTC+00:00)

SR - Pass Details

Date: 21 January 2021
Orbit: 573 x 882 km, 66.7° (Epoch: 04 March)

Event Time Altitude Azimuth Distance (km) Brightness Sun altitude
Exits shadow 04:33:51 26° 200° (SSW) 1,322 ? -23.1°
Maximum altitude 04:36:32 75° 120° (ESE) 730 ? -22.6°
Drops below altitude 10° 04:41:43 10° 35° (NE) 2,281 ? -21.7°
Sets 04:44:14 0° 34° (NE) 3,262 ? -21.3°
